Tracking 30685 objects as of 17-Jun-2025
HD Live streaming from Space Station
objects crossing your sky now

ONEWEB-0675

Track ONEWEB-0675 now!
10-day predictions
ONEWEB-0675 is classified as:


NORAD ID: 55834
Int'l Code: 2023-029AQ
Perigee: 1,191.3 km
Apogee: 1,194.5 km
Inclination: 87.9 °
Period: 109.1 minutes
Semi major axis: 7563 km
RCS: Unknown
Launch date: March 9, 2023
Source: United Kingdom (UK)
Launch site: AIR FORCE EASTERN TEST RANGE (AFETR)
Your satellite tracking list
Your tracking list is empty




NASA's NSSDC Master Catalog

Two Line Element Set (TLE):
1 55834U 23029AQ  25167.84611435  .00000044  00000-0  77569-4 0  9990
2 55834  87.9223  17.6235 0002107  81.4860 278.6512 13.19726454110734
Source of the keplerian elements: AFSPC